QPF
0.01 0.01 0.01 0.01 0.01 0.00 0.00 0.00 0.00 0.00 0.00 0.00 0.00 0.00 0.00 0.00 0.00 0.00 0.00 0.00 0.00 0.00 0.00 0.00 0.01 0.01 0.01 0.01 0.01 0.01 0.01 0.01 0.01 0.01 0.01 0.01 0.01 0.01 0.01 0.01 0.01 0.02 0.02 0.02 0.02 0.02 0.02 0.02 0.01
0.01 0.01 0.01 0.02 0.01 0.00 0.00 0.00 0.00 0.00 0.00 0.00 0.00 0.00 0.00 0.00 0.00 0.00 0.00 0.00 0.00 0.00 0.00 0.00 0.00 0.01 0.01 0.01 0.01 0.01 0.01 0.01 0.01 0.01 0.01 0.02 0.02 0.01 0.01 0.01 0.01 0.01 0.01 0.01 0.01 0.02 0.02 0.02 0.01
0.02 0.01 0.01 0.01 0.01 0.00 0.00 0.00 0.00 0.00 0.00 0.00 0.00 0.00 0.00 0.00 0.00 0.00 0.00 0.00 0.00 0.00 0.00 0.00 0.00 0.01 0.01 0.01 0.01 0.01 0.01 0.01 0.01 0.01 0.01 0.01 0.01 0.01 0.01 0.01 0.01 0.01 0.01 0.01 0.01 0.01 0.01 0.01 0.01
0.01 0.01 0.01 0.01 0.00 0.00 0.00 0.00 0.00 0.00 0.00 0.00 0.00 0.00 0.00 0.00 0.00 0.00 0.00 0.00 0.00 0.00 0.00 0.00 0.01 0.01 0.01 0.01 0.01 0.01 0.01 0.01 0.01 0.01 0.01 0.01 0.01 0.01 0.01 0.01 0.01 0.01 0.01 0.01 0.01 0.01 0.01 0.01 0.01
0.01 0.01 0.01 0.01 0.00 0.00 0.00 0.00 0.00 0.00 0.00 0.00 0.00 0.00 0.00 0.00 0.00 0.00 0.00 0.00 0.00 0.00 0.00 0.00 0.01 0.01 0.01 0.01 0.01 0.01 0.01 0.01 0.01 0.01 0.01 0.01 0.01 0.01 0.01 0.01 0.01 0.01 0.01 0.01 0.01 0.01 0.01 0.01 0.01
0.02 0.02 0.01 0.00 0.00 0.00 0.00 0.01 0.00 0.00 0.00 0.00 0.00 0.00 0.00 0.00 0.00 0.00 0.00 0.00 0.00 0.00 0.00 0.00 0.01 0.01 0.01 0.01 0.02 0.02 0.02 0.02 0.02 0.02 0.02 0.02 0.02 0.01 0.01 0.01 0.02 0.01 0.01 0.01 0.01 0.01 0.01 0.01 0.01
0.01 0.01 0.01 0.00 0.00 0.00 0.00 0.01 0.01 0.01 0.01 0.00 0.00 0.00 0.00 0.00 0.00 0.00 0.00 0.00 0.00 0.00 0.00 0.00 0.01 0.01 0.02 0.02 0.02 0.02 0.02 0.02 0.02 0.02 0.03 0.02 0.02 0.01 0.01 0.01 0.02 0.02 0.02 0.01 0.01 0.01 0.01 0.00 0.01
0.02 0.02 0.01 0.00 0.00 0.00 0.00 0.01 0.01 0.01 0.01 0.00 0.00 0.00 0.00 0.00 0.00 0.00 0.01 0.00 0.00 0.00 0.00 0.01 0.01 0.01 0.02 0.02 0.02 0.02 0.02 0.02 0.02 0.02 0.03 0.02 0.02 0.02 0.02 0.01 0.01 0.02 0.02 0.01 0.01 0.01 0.01 0.01 0.01
0.02 0.03 0.01 0.00 0.00 0.00 0.00 0.00 0.01 0.01 0.01 0.00 0.00 0.00 0.00 0.00 0.00 0.00 0.00 0.01 0.01 0.01 0.01 0.01 0.01 0.02 0.02 0.02 0.02 0.02 0.02 0.02 0.02 0.02 0.02 0.02 0.03 0.03 0.02 0.02 0.02 0.02 0.02 0.02 0.01 0.01 0.01 0.01 0.01
0.03 0.03 0.02 0.01 0.00 0.00 0.00 0.00 0.01 0.01 0.01 0.01 0.01 0.00 0.00 0.00 0.00 0.00 0.01 0.01 0.01 0.01 0.01 0.01 0.01 0.02 0.02 0.02 0.02 0.02 0.02 0.02 0.02 0.02 0.02 0.02 0.02 0.03 0.03 0.02 0.02 0.03 0.03 0.03 0.02 0.02 0.01 0.01 0.01
0.02 0.02 0.02 0.01 0.01 0.01 0.01 0.01 0.01 0.02 0.02 0.01 0.01 0.00 0.00 0.00 0.01 0.01 0.01 0.01 0.02 0.02 0.01 0.01 0.01 0.01 0.02 0.02 0.02 0.02 0.02 0.02 0.02 0.02 0.02 0.02 0.02 0.03 0.03 0.03 0.02 0.02 0.03 0.03 0.03 0.02 0.02 0.01 0.01
0.01 0.02 0.01 0.02 0.02 0.03 0.02 0.01 0.02 0.02 0.02 0.01 0.00 0.00 0.00 0.00 0.01 0.01 0.02 0.02 0.03 0.03 0.02 0.01 0.01 0.01 0.01 0.02 0.02 0.02 0.02 0.02 0.02 0.02 0.02 0.02 0.02 0.02 0.03 0.03 0.03 0.02 0.02 0.02 0.02 0.02 0.02 0.01 0.01
0.01 0.02 0.02 0.02 0.02 0.02 0.02 0.02 0.02 0.02 0.01 0.01 0.01 0.00 0.00 0.00 0.01 0.01 0.02 0.03 0.03 0.03 0.02 0.02 0.01 0.01 0.01 0.01 0.01 0.01 0.02 0.02 0.01 0.02 0.02 0.02 0.02 0.02 0.02 0.02 0.02 0.03 0.03 0.03 0.02 0.02 0.02 0.01 0.01
0.01 0.02 0.02 0.02 0.02 0.02 0.02 0.02 0.01 0.01 0.01 0.01 0.01 0.01 0.00 0.00 0.01 0.01 0.02 0.02 0.03 0.04 0.03 0.03 0.02 0.01 0.01 0.01 0.01 0.01 0.01 0.01 0.01 0.01 0.01 0.01 0.02 0.02 0.02 0.02 0.02 0.02 0.03 0.03 0.02 0.02 0.02 0.02 0.01
0.01 0.02 0.02 0.01 0.02 0.02 0.03 0.03 0.01 0.01 0.01 0.02 0.01 0.01 0.00 0.00 0.01 0.02 0.02 0.01 0.02 0.03 0.04 0.04 0.03 0.02 0.02 0.01 0.00 0.01 0.01 0.01 0.01 0.01 0.01 0.01 0.01 0.01 0.02 0.02 0.02 0.02 0.03 0.04 0.03 0.02 0.02 0.02 0.02
0.02 0.02 0.02 0.02 0.02 0.02 0.03 0.03 0.01 0.01 0.01 0.01 0.01 0.01 0.00 0.00 0.00 0.01 0.02 0.01 0.02 0.03 0.04 0.04 0.04 0.02 0.02 0.01 0.01 0.01 0.01 0.01 0.01 0.01 0.01 0.01 0.01 0.01 0.01 0.01 0.02 0.02 0.03 0.05 0.05 0.04 0.03 0.02 0.02
0.04 0.03 0.02 0.02 0.02 0.03 0.04 0.03 0.01 0.02 0.01 0.01 0.01 0.00 0.00 0.00 0.00 0.01 0.01 0.02 0.02 0.02 0.02 0.04 0.04 0.03 0.03 0.02 0.02 0.01 0.01 0.01 0.01 0.01 0.01 0.01 0.02 0.02 0.02 0.01 0.02 0.03 0.04 0.05 0.05 0.06 0.05 0.03 0.02
0.03 0.02 0.02 0.02 0.02 0.02 0.03 0.02 0.00 0.01 0.01 0.01 0.01 0.01 0.00 0.00 0.00 0.00 0.01 0.01 0.01 0.02 0.02 0.03 0.04 0.04 0.03 0.03 0.02 0.02 0.01 0.01 0.02 0.02 0.01 0.01 0.01 0.01 0.02 0.02 0.02 0.03 0.04 0.05 0.06 0.06 0.06 0.05 0.03
0.02 0.02 0.02 0.03 0.03 0.02 0.02 0.01 0.01 0.01 0.00 0.00 0.01 0.01 0.00 0.00 0.00 0.00 0.00 0.01 0.01 0.01 0.02 0.02 0.02 0.02 0.03 0.03 0.02 0.02 0.01 0.01 0.01 0.02 0.01 0.01 0.01 0.02 0.02 0.02 0.01 0.02 0.03 0.04 0.05 0.06 0.06 0.07 0.05
0.02 0.02 0.02 0.03 0.03 0.02 0.01 0.01 0.01 0.00 0.00 0.00 0.00 0.00 0.00 0.00 0.00 0.00 0.00 0.00 0.01 0.00 0.01 0.02 0.02 0.02 0.02 0.02 0.02 0.01 0.02 0.01 0.01 0.02 0.02 0.02 0.01 0.01 0.02 0.02 0.02 0.02 0.03 0.03 0.04 0.06 0.07 0.07 0.06
0.01 0.01 0.02 0.03 0.02 0.02 0.01 0.01 0.01 0.00 0.00 0.00 0.00 0.00 0.00 0.00 0.00 0.00 0.00 0.00 0.00 0.00 0.00 0.01 0.01 0.02 0.02 0.02 0.03 0.03 0.02 0.02 0.02 0.02 0.03 0.03 0.02 0.02 0.02 0.02 0.02 0.03 0.04 0.04 0.03 0.04 0.05 0.06 0.06
0.00 0.01 0.01 0.03 0.03 0.02 0.01 0.01 0.01 0.00 0.00 0.00 0.00 0.00 0.00 0.00 0.00 0.00 0.00 0.00 0.00 0.00 0.00 0.00 0.01 0.01 0.01 0.02 0.02 0.03 0.02 0.02 0.02 0.02 0.03 0.04 0.04 0.03 0.02 0.02 0.02 0.03 0.04 0.05 0.04 0.04 0.04 0.04 0.05
0.01 0.01 0.01 0.02 0.03 0.01 0.01 0.01 0.00 0.00 0.00 0.00 0.00 0.00 0.00 0.00 0.00 0.00 0.00 0.00 0.00 0.00 0.00 0.00 0.00 0.01 0.01 0.02 0.02 0.02 0.02 0.02 0.03 0.03 0.04 0.05 0.05 0.05 0.04 0.03 0.03 0.03 0.04 0.05 0.05 0.04 0.03 0.03 0.03
0.01 0.02 0.02 0.02 0.03 0.02 0.00 0.00 0.00 0.00 0.00 0.00 0.00 0.00 0.00 0.00 0.00 0.00 0.00 0.00 0.00 0.00 0.00 0.01 0.00 0.00 0.01 0.01 0.02 0.03 0.03 0.03 0.04 0.05 0.06 0.07 0.06 0.07 0.06 0.05 0.04 0.03 0.04 0.04 0.06 0.05 0.02 0.01 0.02
0.02 0.04 0.03 0.03 0.03 0.01 0.00 0.00 0.00 0.00 0.00 0.00 0.00 0.00 0.00 0.00 0.00 0.00 0.00 0.00 0.00 0.00 0.00 0.01 0.01 0.01 0.01 0.01 0.01 0.02 0.03 0.04 0.05 0.06 0.07 0.09 0.09 0.08 0.07 0.06 0.06 0.04 0.03 0.03 0.05 0.05 0.04 0.02 0.01
0.01 0.02 0.02 0.02 0.01 0.01 0.00 0.00 0.00 0.00 0.00 0.00 0.00 0.00 0.00 0.00 0.00 0.01 0.01 0.00 0.00 0.00 0.00 0.01 0.01 0.01 0.02 0.01 0.01 0.01 0.02 0.03 0.04 0.06 0.09 0.11 0.11 0.09 0.09 0.08 0.07 0.06 0.04 0.04 0.04 0.04 0.04 0.03 0.02
0.01 0.01 0.01 0.02 0.02 0.01 0.01 0.00 0.00 0.00 0.00 0.00 0.00 0.00 0.00 0.00 0.00 0.00 0.01 0.01 0.00 0.00 0.00 0.00 0.01 0.01 0.02 0.02 0.02 0.02 0.02 0.02 0.02 0.03 0.06 0.12 0.13 0.11 0.09 0.10 0.10 0.08 0.06 0.05 0.04 0.04 0.04 0.04 0.03
0.01 0.01 0.01 0.03 0.03 0.01 0.00 0.00 0.01 0.01 0.00 0.00 0.00 0.00 0.00 0.00 0.00 0.00 0.00 0.01 0.01 0.00 0.00 0.00 0.01 0.01 0.02 0.03 0.03 0.03 0.03 0.03 0.02 0.02 0.03 0.07 0.11 0.13 0.11 0.10 0.11 0.11 0.08 0.06 0.04 0.04 0.03 0.04 0.03
0.01 0.01 0.02 0.02 0.02 0.02 0.01 0.00 0.01 0.01 0.00 0.00 0.00 0.00 0.01 0.01 0.00 0.00 0.00 0.00 0.01 0.01 0.01 0.00 0.00 0.01 0.02 0.02 0.03 0.03 0.03 0.03 0.03 0.03 0.03 0.05 0.09 0.12 0.13 0.11 0.10 0.09 0.09 0.08 0.07 0.05 0.03 0.03 0.03
0.00 0.01 0.01 0.02 0.02 0.01 0.01 0.00 0.00 0.00 0.00 0.00 0.00 0.00 0.00 0.00 0.01 0.00 0.00 0.00 0.00 0.01 0.01 0.01 0.01 0.01 0.01 0.02 0.03 0.03 0.04 0.04 0.03 0.02 0.02 0.04 0.07 0.10 0.11 0.13 0.11 0.08 0.07 0.07 0.08 0.08 0.06 0.04 0.03
MSLP
1011.09 1011.93 1012.82 1013.63 1014.25 1014.59 1014.60 1014.30 1013.75 1013.06 1012.35 1011.70 1011.17 1010.76 1010.45 1010.19 1009.90 1009.56 1009.16 1008.74 1008.34 1008.05 1007.91 1007.96 1008.20 1008.57 1009.01 1009.46 1009.86 1010.18 1010.41 1010.57 1010.72 1010.87 1011.06 1011.28 1011.53 1011.76 1011.96 1012.10 1012.18 1012.22 1012.22 1012.24 1012.29 1012.38 1012.50 1012.66 1012.81
1011.48 1012.42 1013.34 1014.10 1014.60 1014.75 1014.54 1014.01 1013.25 1012.38 1011.52 1010.78 1010.18 1009.76 1009.45 1009.20 1008.96 1008.67 1008.34 1008.00 1007.69 1007.49 1007.44 1007.57 1007.87 1008.29 1008.78 1009.26 1009.70 1010.05 1010.32 1010.53 1010.70 1010.89 1011.09 1011.32 1011.55 1011.77 1011.95 1012.08 1012.16 1012.20 1012.23 1012.27 1012.34 1012.44 1012.58 1012.73 1012.89
1011.98 1012.97 1013.86 1014.53 1014.85 1014.80 1014.37 1013.62 1012.68 1011.66 1010.71 1009.90 1009.27 1008.83 1008.52 1008.30 1008.08 1007.84 1007.57 1007.31 1007.10 1006.99 1007.03 1007.24 1007.60 1008.06 1008.58 1009.08 1009.53 1009.89 1010.18 1010.41 1010.61 1010.80 1011.01 1011.22 1011.45 1011.65 1011.82 1011.94 1012.03 1012.10 1012.16 1012.23 1012.33 1012.46 1012.61 1012.77 1012.94
1012.55 1013.53 1014.34 1014.86 1014.99 1014.72 1014.09 1013.17 1012.09 1010.99 1009.99 1009.16 1008.54 1008.10 1007.81 1007.59 1007.40 1007.20 1006.99 1006.80 1006.68 1006.66 1006.78 1007.06 1007.46 1007.95 1008.46 1008.95 1009.38 1009.72 1010.00 1010.22 1010.41 1010.60 1010.80 1011.01 1011.22 1011.41 1011.58 1011.71 1011.82 1011.92 1012.02 1012.14 1012.28 1012.43 1012.60 1012.78 1012.94
1013.10 1014.03 1014.72 1015.05 1014.99 1014.53 1013.73 1012.69 1011.55 1010.44 1009.45 1008.66 1008.07 1007.66 1007.39 1007.19 1007.02 1006.85 1006.69 1006.56 1006.51 1006.57 1006.76 1007.07 1007.49 1007.96 1008.44 1008.87 1009.24 1009.54 1009.78 1009.97 1010.14 1010.32 1010.51 1010.71 1010.91 1011.10 1011.28 1011.43 1011.57 1011.71 1011.86 1012.01 1012.19 1012.37 1012.56 1012.74 1012.91
1013.56 1014.39 1014.92 1015.07 1014.83 1014.21 1013.31 1012.22 1011.09 1010.03 1009.12 1008.41 1007.89 1007.53 1007.29 1007.10 1006.94 1006.78 1006.66 1006.58 1006.58 1006.69 1006.92 1007.25 1007.65 1008.07 1008.48 1008.83 1009.12 1009.35 1009.52 1009.68 1009.83 1010.00 1010.19 1010.39 1010.59 1010.79 1010.98 1011.15 1011.32 1011.49 1011.67 1011.86 1012.06 1012.26 1012.46 1012.64 1012.81
1013.85 1014.54 1014.90 1014.88 1014.49 1013.77 1012.83 1011.77 1010.72 1009.77 1008.99 1008.39 1007.96 1007.66 1007.43 1007.25 1007.09 1006.94 1006.82 1006.77 1006.80 1006.94 1007.18 1007.50 1007.85 1008.21 1008.52 1008.78 1008.98 1009.13 1009.25 1009.37 1009.51 1009.68 1009.88 1010.09 1010.31 1010.52 1010.72 1010.90 1011.09 1011.27 1011.47 1011.68 1011.89 1012.10 1012.29 1012.47 1012.64
1013.92 1014.46 1014.66 1014.49 1013.99 1013.23 1012.31 1011.33 1010.41 1009.62 1008.98 1008.51 1008.17 1007.92 1007.71 1007.52 1007.34 1007.17 1007.04 1006.99 1007.03 1007.17 1007.40 1007.68 1007.97 1008.25 1008.47 1008.64 1008.76 1008.85 1008.94 1009.05 1009.20 1009.39 1009.61 1009.85 1010.08 1010.31 1010.51 1010.70 1010.88 1011.07 1011.26 1011.46 1011.67 1011.87 1012.06 1012.23 1012.40
1013.80 1014.19 1014.24 1013.95 1013.39 1012.63 1011.77 1010.92 1010.15 1009.52 1009.03 1008.67 1008.41 1008.18 1007.97 1007.75 1007.53 1007.32 1007.17 1007.10 1007.12 1007.24 1007.43 1007.67 1007.90 1008.10 1008.26 1008.36 1008.43 1008.49 1008.57 1008.70 1008.88 1009.11 1009.37 1009.64 1009.90 1010.13 1010.34 1010.51 1010.68 1010.85 1011.02 1011.20 1011.39 1011.58 1011.76 1011.93 1012.10
1013.54 1013.78 1013.70 1013.33 1012.74 1012.01 1011.25 1010.53 1009.91 1009.42 1009.06 1008.79 1008.56 1008.34 1008.10 1007.83 1007.55 1007.30 1007.10 1006.99 1006.98 1007.07 1007.22 1007.40 1007.58 1007.73 1007.83 1007.90 1007.95 1008.02 1008.14 1008.31 1008.54 1008.83 1009.13 1009.44 1009.72 1009.95 1010.15 1010.31 1010.45 1010.59 1010.73 1010.89 1011.05 1011.23 1011.40 1011.58 1011.75
1013.20 1013.32 1013.14 1012.72 1012.12 1011.45 1010.78 1010.18 1009.68 1009.31 1009.03 1008.80 1008.57 1008.32 1008.03 1007.70 1007.36 1007.05 1006.80 1006.65 1006.60 1006.64 1006.74 1006.88 1007.02 1007.13 1007.21 1007.28 1007.35 1007.46 1007.62 1007.86 1008.16 1008.50 1008.85 1009.18 1009.47 1009.71 1009.89 1010.03 1010.15 1010.26 1010.38 1010.51 1010.66 1010.82 1011.00 1011.18 1011.36
1012.86 1012.88 1012.63 1012.18 1011.61 1010.99 1010.40 1009.88 1009.47 1009.16 1008.90 1008.67 1008.41 1008.11 1007.76 1007.37 1006.98 1006.62 1006.33 1006.13 1006.04 1006.03 1006.09 1006.19 1006.29 1006.38 1006.46 1006.55 1006.66 1006.83 1007.06 1007.35 1007.70 1008.09 1008.47 1008.82 1009.12 1009.35 1009.52 1009.65 1009.75 1009.84 1009.95 1010.07 1010.22 1010.38 1010.55 1010.74 1010.94
1012.58 1012.53 1012.24 1011.79 1011.24 1010.67 1010.13 1009.67 1009.29 1008.98 1008.70 1008.42 1008.11 1007.75 1007.34 1006.91 1006.48 1006.09 1005.78 1005.55 1005.42 1005.38 1005.39 1005.45 1005.52 1005.60 1005.70 1005.81 1005.97 1006.19 1006.47 1006.81 1007.20 1007.60 1007.99 1008.33 1008.62 1008.84 1009.01 1009.13 1009.23 1009.33 1009.44 1009.57 1009.73 1009.90 1010.08 1010.27 1010.47
1012.38 1012.30 1012.00 1011.56 1011.04 1010.50 1009.99 1009.54 1009.14 1008.78 1008.44 1008.09 1007.71 1007.30 1006.86 1006.41 1005.98 1005.60 1005.29 1005.05 1004.90 1004.82 1004.80 1004.82 1004.86 1004.94 1005.04 1005.18 1005.37 1005.62 1005.93 1006.29 1006.67 1007.05 1007.41 1007.72 1007.98 1008.18 1008.34 1008.48 1008.60 1008.72 1008.86 1009.02 1009.19 1009.38 1009.57 1009.76 1009.95
1012.27 1012.17 1011.89 1011.48 1010.99 1010.48 1009.97 1009.48 1009.02 1008.58 1008.15 1007.72 1007.28 1006.84 1006.40 1005.97 1005.58 1005.25 1004.97 1004.75 1004.59 1004.49 1004.43 1004.41 1004.42 1004.48 1004.58 1004.73 1004.94 1005.19 1005.50 1005.83 1006.17 1006.49 1006.78 1007.03 1007.24 1007.42 1007.57 1007.72 1007.87 1008.03 1008.22 1008.41 1008.61 1008.81 1009.00 1009.18 1009.36
1012.22 1012.13 1011.88 1011.51 1011.06 1010.56 1010.03 1009.49 1008.95 1008.41 1007.88 1007.36 1006.87 1006.42 1006.01 1005.65 1005.34 1005.08 1004.87 1004.69 1004.54 1004.42 1004.32 1004.26 1004.24 1004.27 1004.35 1004.50 1004.69 1004.93 1005.19 1005.46 1005.72 1005.95 1006.14 1006.31 1006.45 1006.58 1006.73 1006.89 1007.07 1007.28 1007.51 1007.74 1007.96 1008.17 1008.36 1008.52 1008.67
1012.19 1012.13 1011.93 1011.62 1011.22 1010.73 1010.17 1009.57 1008.92 1008.27 1007.63 1007.04 1006.52 1006.08 1005.73 1005.46 1005.26 1005.10 1004.97 1004.84 1004.72 1004.58 1004.46 1004.35 1004.29 1004.29 1004.34 1004.46 1004.63 1004.82 1005.03 1005.21 1005.36 1005.47 1005.55 1005.61 1005.67 1005.75 1005.86 1006.02 1006.23 1006.48 1006.74 1007.00 1007.24 1007.45 1007.62 1007.77 1007.88
1012.15 1012.14 1012.02 1011.78 1011.43 1010.96 1010.37 1009.69 1008.94 1008.18 1007.44 1006.77 1006.22 1005.81 1005.53 1005.37 1005.29 1005.25 1005.21 1005.14 1005.04 1004.90 1004.75 1004.60 1004.50 1004.45 1004.48 1004.56 1004.69 1004.84 1004.97 1005.05 1005.09 1005.08 1005.03 1004.97 1004.94 1004.95 1005.02 1005.17 1005.38 1005.64 1005.91 1006.18 1006.43 1006.63 1006.79 1006.91 1007.00
1012.08 1012.15 1012.12 1011.97 1011.68 1011.23 1010.62 1009.87 1009.02 1008.14 1007.30 1006.57 1006.00 1005.61 1005.40 1005.34 1005.38 1005.45 1005.50 1005.49 1005.41 1005.26 1005.08 1004.89 1004.74 1004.66 1004.65 1004.71 1004.80 1004.90 1004.96 1004.96 1004.89 1004.76 1004.59 1004.42 1004.29 1004.22 1004.24 1004.35 1004.54 1004.79 1005.05 1005.31 1005.54 1005.72 1005.86 1005.97 1006.04
1011.97 1012.14 1012.22 1012.18 1011.97 1011.55 1010.93 1010.11 1009.17 1008.18 1007.24 1006.44 1005.84 1005.46 1005.31 1005.33 1005.47 1005.63 1005.75 1005.79 1005.72 1005.56 1005.35 1005.13 1004.94 1004.82 1004.78 1004.81 1004.87 1004.93 1004.94 1004.87 1004.72 1004.50 1004.23 1003.96 1003.74 1003.59 1003.54 1003.60 1003.74 1003.94 1004.16 1004.38 1004.58 1004.74 1004.87 1004.97 1005.04
1011.83 1012.11 1012.32 1012.39 1012.27 1011.90 1011.27 1010.41 1009.38 1008.29 1007.26 1006.39 1005.75 1005.37 1005.25 1005.33 1005.53 1005.75 1005.93 1005.99 1005.93 1005.75 1005.51 1005.24 1005.02 1004.87 1004.80 1004.81 1004.85 1004.89 1004.86 1004.76 1004.55 1004.26 1003.92 1003.58 1003.28 1003.06 1002.93 1002.91 1002.98 1003.11 1003.27 1003.44 1003.60 1003.73 1003.84 1003.94 1004.03
1011.65 1012.05 1012.40 1012.60 1012.57 1012.25 1011.63 1010.73 1009.64 1008.47 1007.36 1006.42 1005.73 1005.34 1005.22 1005.33 1005.56 1005.82 1006.02 1006.09 1006.02 1005.82 1005.53 1005.23 1004.97 1004.78 1004.70 1004.68 1004.71 1004.73 1004.70 1004.57 1004.34 1004.02 1003.65 1003.26 1002.90 1002.61 1002.42 1002.31 1002.30 1002.34 1002.42 1002.51 1002.61 1002.71 1002.81 1002.91 1003.03
1011.44 1011.96 1012.44 1012.76 1012.83 1012.57 1011.96 1011.05 1009.92 1008.69 1007.51 1006.52 1005.79 1005.37 1005.25 1005.35 1005.59 1005.86 1006.05 1006.11 1006.02 1005.78 1005.46 1005.12 1004.82 1004.60 1004.48 1004.44 1004.46 1004.47 1004.44 1004.32 1004.09 1003.77 1003.39 1002.98 1002.59 1002.25 1001.99 1001.80 1001.69 1001.64 1001.62 1001.63 1001.67 1001.72 1001.81 1001.92 1002.06
1011.19 1011.83 1012.42 1012.84 1012.99 1012.79 1012.22 1011.31 1010.16 1008.91 1007.70 1006.67 1005.91 1005.47 1005.33 1005.42 1005.64 1005.89 1006.06 1006.10 1005.97 1005.70 1005.34 1004.95 1004.61 1004.35 1004.19 1004.13 1004.13 1004.14 1004.11 1004.00 1003.80 1003.50 1003.13 1002.73 1002.33 1001.96 1001.64 1001.38 1001.18 1001.02 1000.91 1000.83 1000.79 1000.79 1000.85 1000.96 1001.11
1010.91 1011.63 1012.31 1012.81 1013.02 1012.87 1012.34 1011.46 1010.32 1009.08 1007.87 1006.84 1006.07 1005.62 1005.46 1005.53 1005.73 1005.94 1006.08 1006.08 1005.92 1005.61 1005.21 1004.78 1004.38 1004.08 1003.88 1003.79 1003.76 1003.76 1003.73 1003.64 1003.47 1003.21 1002.87 1002.49 1002.10 1001.71 1001.35 1001.03 1000.74 1000.49 1000.27 1000.10 999.98 999.92 999.94 1000.03 1000.18
1010.62 1011.38 1012.10 1012.64 1012.89 1012.78 1012.28 1011.44 1010.35 1009.15 1007.99 1006.99 1006.24 1005.79 1005.62 1005.67 1005.84 1006.01 1006.11 1006.07 1005.86 1005.52 1005.08 1004.61 1004.17 1003.83 1003.59 1003.45 1003.39 1003.37 1003.34 1003.27 1003.12 1002.90 1002.61 1002.26 1001.89 1001.50 1001.11 1000.74 1000.38 1000.04 999.72 999.46 999.25 999.11 999.07 999.12 999.25
1010.33 1011.09 1011.80 1012.33 1012.59 1012.49 1012.03 1011.24 1010.22 1009.10 1008.01 1007.08 1006.38 1005.96 1005.79 1005.81 1005.94 1006.07 1006.12 1006.03 1005.79 1005.41 1004.94 1004.44 1003.98 1003.59 1003.32 1003.14 1003.06 1003.01 1002.97 1002.90 1002.78 1002.59 1002.33 1002.02 1001.67 1001.29 1000.89 1000.48 1000.06 999.64 999.24 998.88 998.58 998.36 998.24 998.23 998.31
1010.09 1010.79 1011.43 1011.91 1012.13 1012.02 1011.59 1010.86 1009.93 1008.91 1007.93 1007.09 1006.46 1006.08 1005.92 1005.92 1006.01 1006.08 1006.08 1005.95 1005.67 1005.27 1004.78 1004.27 1003.79 1003.38 1003.08 1002.88 1002.75 1002.68 1002.62 1002.55 1002.44 1002.27 1002.05 1001.77 1001.44 1001.08 1000.67 1000.23 999.76 999.28 998.80 998.35 997.96 997.65 997.45 997.36 997.36
1009.90 1010.50 1011.03 1011.41 1011.55 1011.41 1010.99 1010.32 1009.49 1008.59 1007.73 1007.00 1006.46 1006.12 1005.97 1005.95 1006.00 1006.02 1005.97 1005.79 1005.48 1005.07 1004.58 1004.07 1003.60 1003.19 1002.87 1002.65 1002.50 1002.40 1002.32 1002.23 1002.11 1001.95 1001.75 1001.49 1001.18 1000.83 1000.42 999.96 999.46 998.93 998.39 997.86 997.39 996.99 996.69 996.51 996.43
1009.78 1010.23 1010.61 1010.85 1010.89 1010.70 1010.27 1009.66 1008.92 1008.15 1007.42 1006.81 1006.36 1006.08 1005.94 1005.90 1005.91 1005.88 1005.77 1005.56 1005.23 1004.82 1004.35 1003.86 1003.41 1003.02 1002.70 1002.46 1002.29 1002.16 1002.05 1001.94 1001.80 1001.64 1001.43 1001.18 1000.89 1000.54 1000.13 999.67 999.15 998.59 998.00 997.41 996.86 996.38 995.99 995.71 995.54
Thickness
5720 5720 5719 5711 5696 5685 5690 5704 5713 5719 5726 5737 5742 5742 5741 5741 5740 5742 5764 5771 5772 5772 5771 5771 5769 5766 5764 5762 5760 5758 5756 5755 5753 5752 5750 5749 5747 5746 5744 5743 5742 5741 5739 5738 5736 5735 5733 5732 5730
5716 5715 5708 5697 5683 5679 5691 5705 5711 5720 5730 5735 5738 5740 5739 5742 5751 5755 5761 5764 5768 5768 5767 5767 5765 5763 5761 5759 5757 5755 5753 5751 5750 5748 5747 5746 5744 5743 5741 5740 5739 5737 5736 5735 5733 5731 5730 5728 5726
5711 5708 5695 5685 5680 5683 5697 5709 5713 5722 5728 5730 5732 5736 5737 5741 5749 5753 5759 5761 5762 5763 5763 5763 5762 5760 5758 5756 5754 5752 5750 5748 5747 5745 5744 5742 5741 5740 5739 5737 5735 5734 5732 5731 5729 5728 5726 5724 5723
5702 5693 5685 5679 5684 5692 5700 5709 5713 5715 5722 5726 5726 5727 5735 5745 5748 5751 5756 5757 5757 5757 5757 5758 5757 5756 5754 5753 5751 5749 5747 5745 5744 5742 5741 5739 5738 5737 5735 5734 5732 5730 5729 5727 5726 5724 5722 5721 5719
5692 5681 5674 5673 5683 5692 5699 5705 5709 5709 5712 5718 5719 5720 5727 5741 5745 5748 5750 5751 5751 5751 5752 5752 5752 5751 5750 5749 5747 5746 5744 5742 5741 5739 5738 5736 5735 5733 5732 5730 5728 5726 5725 5723 5722 5720 5719 5717 5715
5677 5671 5663 5668 5679 5689 5695 5702 5704 5704 5706 5711 5712 5713 5724 5735 5739 5741 5744 5744 5745 5745 5746 5746 5746 5746 5745 5744 5743 5742 5740 5739 5737 5736 5735 5733 5732 5730 5728 5726 5725 5723 5721 5719 5718 5716 5715 5713 5711
5669 5662 5661 5666 5671 5680 5692 5698 5697 5698 5699 5704 5707 5706 5718 5728 5732 5735 5736 5738 5738 5738 5739 5740 5740 5740 5739 5739 5738 5737 5736 5735 5734 5732 5731 5730 5728 5726 5725 5723 5721 5719 5717 5716 5714 5712 5711 5709 5707
5667 5659 5660 5661 5665 5674 5687 5691 5695 5694 5697 5704 5704 5701 5708 5721 5724 5726 5727 5729 5730 5731 5732 5733 5734 5734 5734 5734 5733 5732 5731 5730 5729 5728 5727 5725 5724 5722 5721 5719 5717 5715 5713 5712 5710 5708 5706 5705 5703
5663 5649 5651 5659 5662 5671 5680 5681 5688 5693 5693 5696 5699 5702 5708 5714 5715 5716 5718 5719 5722 5724 5726 5727 5728 5729 5729 5728 5728 5727 5726 5725 5724 5723 5722 5720 5719 5718 5716 5714 5713 5711 5710 5708 5706 5704 5702 5700 5698
5651 5643 5653 5662 5663 5665 5670 5672 5677 5680 5681 5685 5690 5696 5702 5704 5705 5707 5710 5711 5715 5718 5720 5722 5723 5723 5723 5723 5722 5721 5721 5720 5719 5718 5717 5715 5714 5712 5711 5709 5708 5706 5705 5703 5701 5699 5697 5695 5693
5647 5645 5653 5658 5660 5660 5661 5665 5669 5669 5671 5678 5683 5689 5693 5695 5696 5699 5703 5707 5711 5713 5715 5716 5717 5718 5718 5717 5717 5716 5715 5714 5714 5713 5712 5710 5708 5706 5705 5704 5702 5701 5700 5698 5696 5694 5692 5690 5688
5641 5645 5648 5652 5654 5652 5654 5657 5660 5663 5670 5680 5683 5685 5686 5687 5689 5693 5697 5700 5704 5707 5709 5711 5711 5712 5712 5712 5711 5710 5709 5709 5708 5707 5705 5704 5702 5701 5699 5698 5696 5695 5694 5692 5691 5689 5687 5685 5683
5636 5640 5644 5646 5646 5646 5648 5650 5653 5661 5670 5673 5676 5677 5678 5681 5685 5689 5691 5694 5697 5701 5704 5706 5707 5707 5707 5707 5706 5705 5704 5703 5702 5701 5700 5698 5697 5695 5694 5692 5691 5689 5688 5686 5685 5683 5681 5679 5678
5634 5634 5636 5639 5641 5643 5643 5648 5648 5660 5666 5666 5668 5670 5673 5676 5680 5682 5684 5688 5692 5696 5699 5701 5702 5703 5702 5702 5701 5701 5699 5698 5697 5695 5694 5693 5691 5689 5688 5686 5684 5683 5682 5680 5679 5677 5675 5674 5672
5629 5626 5629 5634 5636 5638 5638 5640 5646 5657 5657 5657 5660 5663 5667 5670 5673 5676 5679 5683 5686 5689 5693 5695 5697 5697 5696 5696 5696 5695 5694 5693 5691 5690 5689 5687 5686 5684 5682 5679 5678 5677 5675 5673 5671 5670 5669 5667 5666
5620 5614 5614 5628 5630 5633 5628 5631 5647 5650 5649 5650 5653 5655 5659 5663 5666 5670 5673 5676 5680 5683 5684 5687 5690 5690 5689 5689 5689 5689 5688 5687 5686 5684 5683 5681 5680 5678 5675 5673 5671 5670 5667 5665 5664 5663 5661 5661 5660
5605 5599 5604 5614 5623 5624 5621 5625 5641 5644 5642 5643 5646 5648 5651 5655 5659 5663 5666 5669 5672 5675 5676 5678 5680 5682 5682 5681 5681 5681 5681 5680 5680 5678 5677 5675 5673 5671 5669 5667 5665 5662 5659 5658 5657 5655 5655 5654 5653
5597 5595 5598 5602 5613 5614 5613 5621 5635 5639 5636 5636 5638 5640 5643 5647 5652 5656 5659 5661 5664 5666 5668 5669 5672 5673 5673 5672 5671 5671 5671 5672 5672 5672 5671 5669 5667 5665 5662 5660 5658 5654 5652 5650 5649 5649 5648 5648 5647
5596 5594 5592 5600 5607 5606 5609 5617 5629 5634 5631 5631 5632 5633 5636 5641 5646 5648 5651 5653 5655 5657 5659 5661 5662 5663 5663 5662 5661 5661 5662 5664 5664 5664 5664 5662 5661 5659 5656 5654 5651 5648 5646 5645 5643 5641 5641 5640 5639
5590 5585 5585 5594 5601 5602 5602 5611 5622 5627 5628 5629 5628 5628 5630 5634 5638 5641 5643 5644 5646 5648 5650 5651 5653 5654 5654 5654 5654 5653 5653 5654 5655 5655 5656 5655 5654 5652 5651 5648 5646 5643 5641 5638 5636 5634 5634 5633 5631
5585 5580 5581 5585 5591 5594 5591 5604 5615 5623 5623 5623 5622 5622 5623 5626 5627 5631 5634 5636 5637 5639 5641 5644 5644 5645 5646 5646 5644 5643 5642 5642 5644 5646 5647 5648 5647 5646 5644 5643 5640 5638 5636 5634 5632 5630 5628 5627 5624
5580 5585 5583 5582 5576 5574 5580 5579 5602 5609 5611 5615 5614 5613 5614 5617 5619 5621 5625 5627 5629 5631 5633 5635 5636 5637 5637 5636 5635 5633 5633 5634 5637 5638 5639 5639 5639 5639 5638 5636 5634 5632 5630 5629 5628 5626 5624 5622 5619
5580 5583 5579 5576 5570 5565 5569 5565 5588 5597 5602 5607 5607 5606 5607 5608 5610 5613 5616 5618 5620 5621 5623 5625 5627 5628 5628 5628 5627 5626 5625 5626 5627 5627 5628 5629 5630 5631 5630 5629 5628 5626 5625 5624 5622 5621 5618 5617 5616
5577 5572 5566 5559 5556 5556 5565 5557 5574 5585 5596 5599 5601 5600 5599 5600 5602 5604 5607 5609 5610 5612 5613 5615 5617 5619 5620 5619 5619 5618 5617 5617 5617 5618 5619 5621 5622 5623 5623 5622 5621 5621 5620 5619 5618 5615 5613 5613 5610
5566 5555 5544 5543 5540 5549 5560 5555 5570 5588 5591 5591 5591 5591 5590 5591 5592 5594 5596 5598 5600 5602 5603 5605 5607 5609 5610 5610 5610 5611 5610 5610 5610 5611 5611 5612 5613 5615 5616 5616 5616 5615 5615 5613 5611 5609 5608 5607 5605
5557 5551 5538 5533 5532 5539 5548 5551 5572 5584 5584 5582 5581 5581 5581 5582 5583 5585 5587 5589 5590 5592 5593 5594 5596 5597 5599 5600 5601 5602 5602 5601 5602 5602 5603 5604 5606 5608 5609 5610 5610 5610 5608 5606 5603 5602 5601 5600 5598
5547 5542 5541 5527 5520 5521 5535 5546 5562 5578 5576 5574 5572 5572 5572 5573 5575 5576 5578 5579 5581 5582 5583 5583 5585 5586 5588 5589 5591 5592 5593 5593 5594 5594 5594 5595 5597 5600 5601 5601 5602 5601 5600 5598 5596 5595 5594 5592 5590
5545 5536 5522 5519 5513 5515 5526 5534 5550 5564 5565 5566 5564 5562 5562 5564 5565 5566 5567 5569 5571 5572 5573 5574 5575 5575 5577 5578 5580 5583 5583 5584 5585 5585 5585 5586 5589 5590 5591 5592 5593 5592 5591 5589 5587 5587 5586 5584 5583
5530 5527 5521 5510 5506 5503 5510 5536 5556 5557 5559 5555 5553 5552 5552 5554 5554 5555 5556 5558 5560 5561 5562 5563 5563 5564 5565 5567 5569 5570 5572 5572 5573 5574 5575 5576 5578 5579 5580 5581 5582 5582 5582 5580 5578 5578 5577 5577 5576
5526 5522 5513 5503 5497 5491 5494 5528 5558 5552 5550 5546 5544 5545 5545 5545 5545 5545 5546 5548 5549 5550 5552 5552 5552 5553 5554 5556 5557 5559 5560 5561 5562 5564 5565 5566 5567 5568 5570 5571 5572 5572 5572 5571 5569 5569 5569 5568 5568